| time (UTC) | temp C | wind direction | speed KPH | gust KPH | rain 1hr cm | rain 24hr cm | rain mn cm | humidity % | barometer mb |
| 20260507145053 | 29 | 166 | 4.8 | 24.1 | 0.00 | 0.00 | 0.00 | 74 | 1010.2 |
| 20260507144053 | 29 | 93 | 6.4 | 20.9 | 0.00 | 0.00 | 0.00 | 74 | 1010.5 |
| 20260507143553 | 29 | 140 | 11.3 | 20.9 | 0.00 | 0.00 | 0.00 | 74 | 1010.2 |
| 20260507143053 | 29 | 108 | 9.7 | 19.3 | 0.00 | 0.00 | 0.00 | 73 | 1010.3 |
| 20260507142553 | 29 | 118 | 8.0 | 20.9 | 0.00 | 0.00 | 0.00 | 73 | 1010.4 |
| 20260507142053 | 29 | 122 | 8.0 | 20.9 | 0.00 | 0.00 | 0.00 | 73 | 1010.2 |
| 20260507141553 | 29 | 146 | 11.3 | 16.1 | 0.00 | 0.00 | 0.00 | 73 | 1010.3 |
| 20260507141053 | 29 | 144 | 12.9 | 20.9 | 0.00 | 0.00 | 0.00 | 73 | 1010.2 |
| 20260507140554 | 29 | 146 | 12.9 | 20.9 | 0.00 | 0.00 | 0.00 | 73 | 1010.2 |
| 20260507135553 | 29 | 135 | 6.4 | 17.7 | 0.00 | 0.00 | 0.00 | 73 | 1010.5 |
| 20260507135053 | 29 | 131 | 6.4 | 19.3 | 0.00 | 0.00 | 0.00 | 73 | 1010.2 |
| 20260507134053 | 29 | 129 | 8.0 | 20.9 | 0.00 | 0.00 | 0.00 | 73 | 1010.3 |
| 20260507133053 | 29 | 82 | 3.2 | 20.9 | 0.00 | 0.00 | 0.00 | 73 | 1010.3 |
| 20260507132553 | 29 | 109 | 9.7 | 20.9 | 0.00 | 0.00 | 0.00 | 72 | 1010.0 |
| 20260507132053 | 29 | 140 | 9.7 | 17.7 | 0.00 | 0.00 | 0.00 | 72 | 1009.9 |
| 20260507131553 | 29 | 75 | 11.3 | 22.5 | 0.00 | 0.00 | 0.00 | 72 | 1010.0 |
| 20260507131053 | 29 | 122 | 17.7 | 22.5 | 0.00 | 0.00 | 0.00 | 72 | 1010.0 |
| 20260507130553 | 29 | 84 | 6.4 | 24.1 | 0.00 | 0.00 | 0.00 | 72 | 1010.1 |
| 20260507130053 | 29 | 117 | 11.3 | 24.1 | 0.00 | 0.00 | 0.00 | 71 | 1009.7 |
| 20260507125553 | 30 | 41 | 6.4 | 19.3 | 0.00 | 0.00 | 0.00 | 72 | 1009.8 |
| 20260507125053 | 30 | 94 | 6.4 | 19.3 | 0.00 | 0.00 | 0.00 | 72 | 1010.0 |
| 20260507124554 | 30 | 115 | 12.9 | 19.3 | 0.00 | 0.00 | 0.00 | 72 | 1009.9 |
| 20260507124053 | 30 | 122 | 4.8 | 20.9 | 0.00 | 0.00 | 0.00 | 72 | 1009.9 |
| 20260507123553 | 30 | 122 | 14.5 | 20.9 | 0.00 | 0.00 | 0.00 | 72 | 1010.1 |
| 20260507122553 | 30 | 125 | 17.7 | 20.9 | 0.00 | 0.00 | 0.00 | 72 | 1009.7 |
| 20260507122053 | 30 | 126 | 8.0 | 20.9 | 0.00 | 0.00 | 0.00 | 72 | 1009.7 |
| 20260507121553 | 30 | 117 | 8.0 | 24.1 | 0.00 | 0.00 | 0.00 | 72 | 1009.8 |
| 20260507121053 | 30 | 81 | 4.8 | 24.1 | 0.00 | 0.00 | 0.00 | 72 | 1009.8 |
| 20260507120553 | 30 | 126 | 11.3 | 19.3 | 0.00 | 0.00 | 0.00 | 72 | 1009.6 |
| 20260507120054 | 30 | 105 | 8.0 | 19.3 | 0.00 | 0.00 | 0.00 | 72 | 1009.6 |
| 20260507115553 | 30 | 101 | 6.4 | 17.7 | 0.00 | 0.00 | 0.00 | 72 | 1009.2 |
| 20260507115053 | 30 | 108 | 6.4 | 24.1 | 0.00 | 0.00 | 0.00 | 72 | 1009.1 |
| 20260507114053 | 30 | 102 | 16.1 | 22.5 | 0.00 | 0.00 | 0.00 | 72 | 1009.1 |
| 20260507113553 | 30 | 100 | 12.9 | 20.9 | 0.00 | 0.00 | 0.00 | 72 | 1009.1 |
| 20260507113053 | 30 | 116 | 9.7 | 22.5 | 0.00 | 0.00 | 0.00 | 72 | 1009.3 |
| 20260507112553 | 30 | 99 | 4.8 | 25.7 | 0.00 | 0.00 | 0.00 | 71 | 1009.3 |
| 20260507112053 | 30 | 122 | 4.8 | 25.7 | 0.00 | 0.00 | 0.00 | 71 | 1009.4 |
| 20260507111553 | 30 | 94 | 6.4 | 22.5 | 0.00 | 0.00 | 0.00 | 72 | 1008.9 |
| 20260507111053 | 30 | 110 | 11.3 | 17.7 | 0.00 | 0.00 | 0.00 | 72 | 1009.2 |
| 20260507110553 | 30 | 107 | 8.0 | 20.9 | 0.00 | 0.00 | 0.00 | 71 | 1009.1 |
| 20260507110053 | 30 | 125 | 4.8 | 20.9 | 0.00 | 0.00 | 0.00 | 72 | 1008.8 |
| 20260507105553 | 30 | 99 | 17.7 | 22.5 | 0.00 | 0.00 | 0.00 | 71 | 1008.8 |
| 20260507104554 | 30 | 99 | 9.7 | 22.5 | 0.00 | 0.00 | 0.00 | 72 | 1008.7 |
| 20260507104053 | 30 | 114 | 14.5 | 22.5 | 0.00 | 0.00 | 0.00 | 72 | 1008.7 |
| 20260507103553 | 30 | 96 | 12.9 | 24.1 | 0.00 | 0.00 | 0.00 | 72 | 1008.5 |
| 20260507103053 | 30 | 110 | 6.4 | 24.1 | 0.00 | 0.00 | 0.00 | 72 | 1008.6 |
| 20260507102053 | 31 | 135 | 9.7 | 29.0 | 0.00 | 0.00 | 0.00 | 72 | 1008.5 |
| 20260507101554 | 31 | 121 | 12.9 | 27.4 | 0.00 | 0.00 | 0.00 | 71 | 1008.3 |
| 20260507101053 | 31 | 127 | 20.9 | 27.4 | 0.00 | 0.00 | 0.00 | 70 | 1008.3 |
| 20260507100553 | 31 | 76 | 16.1 | 25.7 | 0.00 | 0.00 | 0.00 | 70 | 1008.1 |
| 20260507100053 | 31 | 93 | 12.9 | 25.7 | 0.00 | 0.00 | 0.00 | 69 | 1008.1 |
| 20260507095553 | 31 | 121 | 6.4 | 29.0 | 0.00 | 0.00 | 0.00 | 68 | 1008.0 |
| 20260507095053 | 31 | 151 | 9.7 | 29.0 | 0.00 | 0.00 | 0.00 | 68 | 1008.2 |
| 20260507094553 | 31 | 88 | 9.7 | 27.4 | 0.00 | 0.00 | 0.00 | 68 | 1008.2 |
| 20260507094053 | 31 | 111 | 17.7 | 30.6 | 0.00 | 0.00 | 0.00 | 67 | 1007.9 |
| 20260507093553 | 32 | 131 | 20.9 | 30.6 | 0.00 | 0.00 | 0.00 | 67 | 1008.1 |
| 20260507093053 | 32 | 91 | 9.7 | 33.8 | 0.00 | 0.00 | 0.00 | 66 | 1007.8 |
| 20260507092054 | 32 | 93 | 12.9 | 37.0 | 0.00 | 0.00 | 0.00 | 66 | 1007.8 |
| 20260507091554 | 32 | 99 | 24.1 | 37.0 | 0.00 | 0.00 | 0.00 | 65 | 1007.7 |
| 20260507091053 | 32 | 113 | 11.3 | 27.4 | 0.00 | 0.00 | 0.00 | 65 | 1007.5 |
| 20260507090553 | 32 | 44 | 3.2 | 27.4 | 0.00 | 0.00 | 0.00 | 64 | 1007.7 |
| 20260507090053 | 32 | 109 | 6.4 | 27.4 | 0.00 | 0.00 | 0.00 | 64 | 1007.4 |
| 20260507085553 | 32 | 135 | 19.3 | 27.4 | 0.00 | 0.00 | 0.00 | 63 | 1007.3 |
| 20260507084553 | 33 | 109 | 11.3 | 32.2 | 0.00 | 0.00 | 0.00 | 62 | 1007.1 |
| 20260507083553 | 33 | 142 | 9.7 | 32.2 | 0.00 | 0.00 | 0.00 | 62 | 1007.1 |
| 20260507083053 | 33 | 78 | 6.4 | 32.2 | 0.00 | 0.00 | 0.00 | 61 | 1007.2 |
| 20260507082554 | 33 | 107 | 6.4 | 30.6 | 0.00 | 0.00 | 0.00 | 60 | 1007.2 |
| 20260507082053 | 33 | 129 | 9.7 | 25.7 | 0.00 | 0.00 | 0.00 | 60 | 1007.1 |
| 20260507080553 | 33 | 100 | 8.0 | 20.9 | 0.00 | 0.00 | 0.00 | 60 | 1007.1 |
| 20260507075553 | 34 | 128 | 17.7 | 25.7 | 0.00 | 0.00 | 0.00 | 58 | 1007.2 |
| 20260507075053 | 34 | 122 | 6.4 | 29.0 | 0.00 | 0.00 | 0.00 | 60 | 1007.3 |
| 20260507074553 | 33 | 142 | 4.8 | 30.6 | 0.00 | 0.00 | 0.00 | 60 | 1007.2 |
| 20260507073553 | 34 | 132 | 14.5 | 25.7 | 0.00 | 0.00 | 0.00 | 58 | 1007.2 |
| 20260507073053 | 34 | 111 | 4.8 | 27.4 | 0.00 | 0.00 | 0.00 | 58 | 1007.2 |
| 20260507072553 | 34 | 31 | 4.8 | 27.4 | 0.00 | 0.00 | 0.00 | 58 | 1007.0 |
| 20260507072053 | 34 | 191 | 4.8 | 22.5 | 0.00 | 0.00 | 0.00 | 58 | 1007.2 |
| 20260507071553 | 34 | 134 | 3.2 | 25.7 | 0.00 | 0.00 | 0.00 | 57 | 1007.3 |
| 20260507071053 | 34 | 129 | 12.9 | 27.4 | 0.00 | 0.00 | 0.00 | 57 | 1007.1 |
| 20260507070053 | 35 | 111 | 19.3 | 25.7 | 0.00 | 0.00 | 0.00 | 57 | 1007.2 |
| 20260507065554 | 35 | 178 | 16.1 | 20.9 | 0.00 | 0.00 | 0.00 | 56 | 1007.3 |
| 20260507065053 | 34 | 147 | 11.3 | 27.4 | 0.00 | 0.00 | 0.00 | 57 | 1007.2 |
| 20260507064553 | 34 | 93 | 12.9 | 27.4 | 0.00 | 0.00 | 0.00 | 57 | 1007.4 |
| 20260507064053 | 34 | 105 | 11.3 | 25.7 | 0.00 | 0.00 | 0.00 | 57 | 1007.4 |
| 20260507063553 | 34 | 101 | 11.3 | 25.7 | 0.00 | 0.00 | 0.00 | 56 | 1007.5 |
| 20260507062053 | 35 | 106 | 11.3 | 25.7 | 0.00 | 0.00 | 0.00 | 56 | 1007.6 |
| 20260507061553 | 35 | 116 | 16.1 | 27.4 | 0.00 | 0.00 | 0.00 | 55 | 1007.6 |
| 20260507061053 | 34 | 132 | 16.1 | 27.4 | 0.00 | 0.00 | 0.00 | 56 | 1007.8 |
| 20260507060553 | 34 | 149 | 6.4 | 27.4 | 0.00 | 0.00 | 0.00 | 56 | 1007.9 |
| 20260507060053 | 34 | 163 | 11.3 | 27.4 | 0.00 | 0.00 | 0.00 | 56 | 1007.7 |
| 20260507055553 | 34 | 117 | 9.7 | 22.5 | 0.00 | 0.00 | 0.00 | 55 | 1008.0 |
| 20260507055053 | 35 | 98 | 11.3 | 22.5 | 0.00 | 0.00 | 0.00 | 54 | 1008.1 |
| 20260507054553 | 34 | 98 | 12.9 | 22.5 | 0.00 | 0.00 | 0.00 | 55 | 1008.2 |
| 20260507053553 | 34 | 118 | 17.7 | 25.7 | 0.00 | 0.00 | 0.00 | 53 | 1008.5 |
| 20260507052553 | 33 | 111 | 6.4 | 27.4 | 0.00 | 0.00 | 0.00 | 56 | 1008.5 |
| 20260507052053 | 33 | 169 | 12.9 | 27.4 | 0.00 | 0.00 | 0.00 | 57 | 1008.9 |
| 20260507051553 | 34 | 112 | 11.3 | 24.1 | 0.00 | 0.00 | 0.00 | 54 | 1008.7 |
| 20260507051056 | 35 | 94 | 6.4 | 16.1 | 0.00 | 0.00 | 0.00 | 54 | 1008.7 |
| 20260507050553 | 34 | 88 | 8.0 | 17.7 | 0.00 | 0.00 | 0.00 | 55 | 1008.9 |
| 20260507045553 | 33 | 99 | 6.4 | 20.9 | 0.00 | 0.00 | 0.00 | 54 | 1009.2 |
| 20260507045053 | 33 | 119 | 9.7 | 24.1 | 0.00 | 0.00 | 0.00 | 57 | 1009.3 |
| 20260507044553 | 33 | 91 | 14.5 | 27.4 | 0.00 | 0.00 | 0.00 | 56 | 1009.5 |
| 20260507043553 | 33 | 103 | 17.7 | 20.9 | 0.00 | 0.00 | 0.00 | 56 | 1009.6 |
| 20260507043053 | 34 | 73 | 16.1 | 20.9 | 0.00 | 0.00 | 0.00 | 55 | 1009.9 |
| 20260507042553 | 34 | 129 | 6.4 | 20.9 | 0.00 | 0.00 | 0.00 | 55 | 1009.9 |
| 20260507042053 | 33 | 149 | 3.2 | 20.9 | 0.00 | 0.00 | 0.00 | 57 | 1009.8 |
| 20260507041553 | 33 | 139 | 4.8 | 17.7 | 0.00 | 0.00 | 0.00 | 56 | 1009.9 |
| 20260507041053 | 33 | 117 | 1.6 | 20.9 | 0.00 | 0.00 | 0.00 | 57 | 1010.0 |
| 20260507040054 | 33 | 84 | 16.1 | 24.1 | 0.00 | 0.00 | 0.00 | 56 | 1010.0 |
| 20260507035553 | 33 | 105 | 17.7 | 24.1 | 0.00 | 0.00 | 0.00 | 57 | 1010.2 |
| 20260507035053 | 33 | 0 | 6.4 | 20.9 | 0.00 | 0.00 | 0.00 | 58 | 1010.1 |
| 20260507034553 | 33 | 86 | 11.3 | 25.7 | 0.00 | 0.00 | 0.00 | 57 | 1010.2 |
| 20260507034053 | 32 | 97 | 16.1 | 27.4 | 0.00 | 0.00 | 0.00 | 59 | 1010.4 |
| 20260507033553 | 32 | 128 | 4.8 | 30.6 | 0.00 | 0.00 | 0.00 | 59 | 1010.6 |
| 20260507033053 | 32 | 98 | 16.1 | 30.6 | 0.00 | 0.00 | 0.00 | 59 | 1010.5 |
| 20260507032553 | 33 | 113 | 11.3 | 24.1 | 0.00 | 0.00 | 0.00 | 58 | 1010.5 |
| 20260507032053 | 33 | 126 | 14.5 | 27.4 | 0.00 | 0.00 | 0.00 | 59 | 1010.5 |
| 20260507031053 | 32 | 107 | 22.5 | 24.1 | 0.00 | 0.00 | 0.00 | 60 | 1010.6 |
| 20260507030553 | 32 | 109 | 9.7 | 24.1 | 0.00 | 0.00 | 0.00 | 63 | 1010.5 |
| 20260507025553 | 32 | 108 | 6.4 | 27.4 | 0.00 | 0.00 | 0.00 | 62 | 1010.7 |
| 20260507025053 | 32 | 149 | 16.1 | 29.0 | 0.00 | 0.00 | 0.00 | 61 | 1010.8 |
| 20260507024553 | 32 | 117 | 14.5 | 29.0 | 0.00 | 0.00 | 0.00 | 62 | 1010.7 |
| 20260507023554 | 32 | 110 | 17.7 | 32.2 | 0.00 | 0.00 | 0.00 | 62 | 1010.8 |
| 20260507022554 | 32 | 53 | 3.2 | 25.7 | 0.00 | 0.00 | 0.00 | 62 | 1011.0 |
| 20260507022053 | 32 | 81 | 16.1 | 25.7 | 0.00 | 0.00 | 0.00 | 61 | 1010.9 |
| 20260507020553 | 32 | 113 | 11.3 | 20.9 | 0.00 | 0.00 | 0.00 | 63 | 1011.1 |
| 20260507020053 | 32 | 98 | 11.3 | 25.7 | 0.00 | 0.00 | 0.00 | 62 | 1010.9 |
| 20260507015053 | 32 | 114 | 16.1 | 30.6 | 0.00 | 0.00 | 0.00 | 62 | 1011.2 |
| 20260507014552 | 32 | 97 | 9.7 | 30.6 | 0.00 | 0.00 | 0.00 | 62 | 1011.2 |
| 20260507013053 | 31 | 67 | 9.7 | 25.7 | 0.00 | 0.00 | 0.00 | 64 | 1011.2 |
| 20260507012053 | 32 | 119 | 9.7 | 17.7 | 0.00 | 0.00 | 0.00 | 62 | 1011.3 |
| 20260507011553 | 31 | 61 | 11.3 | 17.7 | 0.00 | 0.00 | 0.00 | 63 | 1011.4 |
| 20260507010553 | 31 | 138 | 8.0 | 22.5 | 0.00 | 0.00 | 0.00 | 65 | 1011.3 |
| 20260507010053 | 31 | 145 | 4.8 | 24.1 | 0.00 | 0.00 | 0.00 | 65 | 1011.3 |
| 20260507005553 | 30 | 121 | 11.3 | 25.7 | 0.00 | 0.00 | 0.00 | 67 | 1011.4 |
| 20260507005053 | 30 | 149 | 8.0 | 25.7 | 0.00 | 0.00 | 0.00 | 68 | 1011.3 |
| 20260507004553 | 30 | 114 | 12.9 | 24.1 | 0.00 | 0.00 | 0.00 | 68 | 1011.4 |
| 20260507004053 | 30 | 78 | 11.3 | 25.7 | 0.00 | 0.00 | 0.00 | 69 | 1011.3 |
| 20260507003553 | 30 | 110 | 11.3 | 25.7 | 0.00 | 0.00 | 0.00 | 68 | 1011.2 |
| 20260507003053 | 30 | 112 | 4.8 | 22.5 | 0.00 | 0.00 | 0.00 | 70 | 1011.3 |
| 20260507002053 | 30 | 107 | 11.3 | 27.4 | 0.00 | 0.00 | 0.00 | 71 | 1011.3 |
| 20260507001553 | 30 | 99 | 17.7 | 27.4 | 0.00 | 0.00 | 0.00 | 71 | 1011.5 |
| 20260507001053 | 30 | 119 | 16.1 | 22.5 | 0.00 | 0.00 | 0.00 | 71 | 1011.3 |
| 20260507000553 | 30 | 118 | 9.7 | 24.1 | 0.00 | 0.00 | 0.00 | 71 | 1011.3 |
| 20260506235554 | 29 | 150 | 3.2 | 24.1 | 0.00 | 0.00 | 0.00 | 73 | 1011.2 |
| 20260506235052 | 29 | 86 | 6.4 | 25.7 | 0.00 | 0.00 | 0.00 | 73 | 1011.3 |
| 20260506234554 | 29 | 134 | 9.7 | 25.7 | 0.00 | 0.00 | 0.00 | 73 | 1011.2 |
| 20260506234053 | 29 | 113 | 16.1 | 24.1 | 0.00 | 0.00 | 0.00 | 72 | 1011.1 |
| 20260506233553 | 29 | 111 | 9.7 | 24.1 | 0.00 | 0.00 | 0.00 | 72 | 1011.1 |
| 20260506232553 | 29 | 156 | 8.0 | 20.9 | 0.00 | 0.00 | 0.00 | 72 | 1011.0 |
| 20260506232053 | 29 | 128 | 8.0 | 20.9 | 0.00 | 0.00 | 0.00 | 73 | 1010.9 |
| 20260506231552 | 29 | 114 | 16.1 | 22.5 | 0.00 | 0.00 | 0.00 | 73 | 1011.1 |
| 20260506231053 | 29 | 117 | 17.7 | 22.5 | 0.00 | 0.00 | 0.00 | 73 | 1011.0 |
| 20260506230054 | 28 | 121 | 6.4 | 19.3 | 0.00 | 0.00 | 0.00 | 75 | 1010.9 |
| 20260506225053 | 28 | 129 | 11.3 | 20.9 | 0.00 | 0.00 | 0.00 | 75 | 1010.8 |
| 20260506224553 | 28 | 135 | 6.4 | 20.9 | 0.00 | 0.00 | 0.00 | 76 | 1010.7 |
| 20260506224052 | 28 | 94 | 6.4 | 19.3 | 0.00 | 0.00 | 0.00 | 76 | 1010.5 |
| 20260506223053 | 28 | 104 | 9.7 | 19.3 | 0.00 | 0.00 | 0.00 | 77 | 1010.6 |
| 20260506222553 | 28 | 110 | 8.0 | 22.5 | 0.00 | 0.00 | 0.00 | 77 | 1010.6 |
| 20260506222053 | 28 | 97 | 11.3 | 22.5 | 0.00 | 0.00 | 0.00 | 77 | 1010.3 |
| 20260506221054 | 27 | 98 | 16.1 | 22.5 | 0.00 | 0.00 | 0.00 | 78 | 1010.5 |
| 20260506220553 | 27 | 73 | 6.4 | 22.5 | 0.00 | 0.00 | 0.00 | 79 | 1010.3 |
| 20260506220053 | 27 | 100 | 9.7 | 22.5 | 0.00 | 0.00 | 0.00 | 80 | 1010.4 |
| 20260506215553 | 27 | 93 | 12.9 | 19.3 | 0.00 | 0.00 | 0.00 | 80 | 1010.6 |
| 20260506215052 | 27 | 99 | 9.7 | 20.9 | 0.00 | 0.00 | 0.00 | 81 | 1010.4 |
| 20260506214553 | 27 | 119 | 6.4 | 20.9 | 0.00 | 0.00 | 0.00 | 81 | 1010.5 |
| 20260506213553 | 27 | 63 | 6.4 | 17.7 | 0.00 | 0.00 | 0.00 | 81 | 1010.3 |
| 20260506212053 | 27 | 108 | 4.8 | 17.7 | 0.00 | 0.00 | 0.00 | 81 | 1010.1 |
| 20260506211553 | 27 | 142 | 6.4 | 19.3 | 0.00 | 0.00 | 0.00 | 81 | 1010.2 |
| 20260506210053 | 27 | 55 | 6.4 | 14.5 | 0.00 | 0.00 | 0.00 | 82 | 1010.3 |
| 20260506205553 | 27 | 114 | 6.4 | 8.0 | 0.00 | 0.00 | 0.00 | 83 | 1010.1 |
| 20260506205053 | 27 | 129 | 3.2 | 8.0 | 0.00 | 0.00 | 0.00 | 82 | 1010.0 |
| 20260506204553 | 27 | 87 | 4.8 | 11.3 | 0.00 | 0.00 | 0.00 | 82 | 1009.8 |
| 20260506204053 | 27 | 161 | 3.2 | 11.3 | 0.00 | 0.00 | 0.00 | 82 | 1010.0 |
| 20260506203553 | 27 | 107 | 3.2 | 9.7 | 0.00 | 0.00 | 0.00 | 82 | 1009.9 |
| 20260506203053 | 27 | 115 | 6.4 | 9.7 | 0.00 | 0.00 | 0.00 | 82 | 1009.9 |
| 20260506202553 | 27 | 75 | 3.2 | 9.7 | 0.00 | 0.00 | 0.00 | 81 | 1010.0 |
| 20260506201553 | 27 | 109 | 6.4 | 12.9 | 0.00 | 0.00 | 0.00 | 81 | 1009.6 |
| 20260506201053 | 27 | 114 | 4.8 | 12.9 | 0.00 | 0.00 | 0.00 | 80 | 1009.8 |
| 20260506200553 | 27 | 118 | 4.8 | 12.9 | 0.00 | 0.00 | 0.00 | 80 | 1009.8 |
| 20260506200054 | 27 | 99 | 6.4 | 12.9 | 0.00 | 0.00 | 0.00 | 79 | 1009.8 |
| 20260506195553 | 27 | 87 | 9.7 | 16.1 | 0.00 | 0.00 | 0.00 | 78 | 1009.8 |
| 20260506195053 | 27 | 81 | 9.7 | 16.1 | 0.00 | 0.00 | 0.00 | 78 | 1009.9 |
| 20260506194553 | 27 | 130 | 3.2 | 17.7 | 0.00 | 0.00 | 0.00 | 78 | 1009.7 |
| 20260506194053 | 27 | 114 | 11.3 | 20.9 | 0.00 | 0.00 | 0.00 | 77 | 1009.8 |
| 20260506193553 | 27 | 120 | 9.7 | 20.9 | 0.00 | 0.00 | 0.00 | 77 | 1009.6 |
| 20260506193054 | 27 | 89 | 9.7 | 16.1 | 0.00 | 0.00 | 0.00 | 77 | 1009.4 |
| 20260506192553 | 27 | 96 | 11.3 | 16.1 | 0.00 | 0.00 | 0.00 | 76 | 1009.7 |
| 20260506192053 | 27 | 110 | 8.0 | 16.1 | 0.00 | 0.00 | 0.00 | 76 | 1009.5 |
| 20260506191554 | 27 | 136 | 6.4 | 14.5 | 0.00 | 0.00 | 0.00 | 77 | 1009.6 |
| 20260506191053 | 27 | 97 | 6.4 | 20.9 | 0.00 | 0.00 | 0.00 | 77 | 1009.4 |
| 20260506190553 | 27 | 112 | 6.4 | 20.9 | 0.00 | 0.00 | 0.00 | 77 | 1009.6 |
| 20260506190054 | 27 | 82 | 9.7 | 20.9 | 0.00 | 0.00 | 0.00 | 76 | 1009.5 |
| 20260506185553 | 27 | 131 | 6.4 | 20.9 | 0.00 | 0.00 | 0.00 | 77 | 1009.4 |
| 20260506185053 | 27 | 99 | 11.3 | 20.9 | 0.00 | 0.00 | 0.00 | 76 | 1009.7 |
| 20260506184553 | 27 | 129 | 14.5 | 22.5 | 0.00 | 0.00 | 0.00 | 77 | 1009.6 |
| 20260506184053 | 27 | 114 | 8.0 | 22.5 | 0.00 | 0.00 | 0.00 | 76 | 1009.5 |
| 20260506183553 | 27 | 130 | 3.2 | 22.5 | 0.00 | 0.00 | 0.00 | 76 | 1009.5 |
| 20260506183054 | 27 | 79 | 8.0 | 22.5 | 0.00 | 0.00 | 0.00 | 75 | 1009.6 |
| 20260506182553 | 27 | 172 | 9.7 | 20.9 | 0.00 | 0.00 | 0.00 | 76 | 1009.8 |
| 20260506182053 | 27 | 89 | 8.0 | 19.3 | 0.00 | 0.00 | 0.00 | 76 | 1009.5 |
| 20260506181553 | 27 | 103 | 8.0 | 19.3 | 0.00 | 0.00 | 0.00 | 77 | 1009.6 |
| 20260506181053 | 27 | 135 | 6.4 | 17.7 | 0.00 | 0.00 | 0.00 | 76 | 1009.7 |
| 20260506180554 | 27 | 124 | 4.8 | 22.5 | 0.00 | 0.00 | 0.00 | 76 | 1009.7 |
| 20260506180053 | 27 | 94 | 6.4 | 22.5 | 0.00 | 0.00 | 0.00 | 75 | 1009.7 |
| 20260506175553 | 27 | 107 | 3.2 | 20.9 | 0.00 | 0.00 | 0.00 | 75 | 1009.8 |
| 20260506175053 | 27 | 119 | 6.4 | 20.9 | 0.00 | 0.00 | 0.00 | 75 | 1009.8 |
| 20260506174553 | 27 | 88 | 4.8 | 20.9 | 0.00 | 0.00 | 0.00 | 75 | 1009.8 |
| 20260506174052 | 27 | 111 | 6.4 | 22.5 | 0.00 | 0.00 | 0.00 | 76 | 1009.8 |
| 20260506173553 | 27 | 119 | 8.0 | 22.5 | 0.00 | 0.00 | 0.00 | 76 | 1009.9 |
| 20260506173053 | 27 | 129 | 9.7 | 17.7 | 0.00 | 0.00 | 0.00 | 76 | 1010.0 |
| 20260506172553 | 27 | 174 | 4.8 | 16.1 | 0.00 | 0.00 | 0.00 | 76 | 1009.9 |
| 20260506172053 | 27 | 105 | 6.4 | 27.4 | 0.00 | 0.00 | 0.00 | 76 | 1010.0 |
| 20260506171553 | 27 | 117 | 6.4 | 27.4 | 0.00 | 0.00 | 0.00 | 76 | 1010.0 |
| 20260506171053 | 27 | 177 | 9.7 | 16.1 | 0.00 | 0.00 | 0.00 | 76 | 1010.1 |
| 20260506170553 | 27 | 158 | 4.8 | 17.7 | 0.00 | 0.00 | 0.00 | 76 | 1010.3 |
| 20260506170053 | 28 | 101 | 3.2 | 20.9 | 0.00 | 0.00 | 0.00 | 75 | 1010.2 |
| 20260506165553 | 27 | 106 | 8.0 | 20.9 | 0.00 | 0.00 | 0.00 | 75 | 1010.2 |
| 20260506165053 | 27 | 104 | 9.7 | 17.7 | 0.00 | 0.00 | 0.00 | 77 | 1010.3 |
| 20260506164553 | 27 | 96 | 6.4 | 17.7 | 0.00 | 0.00 | 0.00 | 77 | 1010.4 |
| 20260506164053 | 27 | 112 | 14.5 | 14.5 | 0.00 | 0.00 | 0.00 | 77 | 1010.4 |
| 20260506163553 | 27 | 94 | 6.4 | 14.5 | 0.00 | 0.00 | 0.00 | 77 | 1010.4 |
| 20260506163053 | 27 | 109 | 4.8 | 20.9 | 0.00 | 0.00 | 0.00 | 77 | 1010.3 |
| 20260506162052 | 28 | 145 | 4.8 | 17.7 | 0.00 | 0.00 | 0.00 | 77 | 1010.6 |
| 20260506161553 | 28 | 119 | 6.4 | 17.7 | 0.00 | 0.00 | 0.00 | 76 | 1010.5 |
| 20260506161053 | 28 | 114 | 12.9 | 19.3 | 0.00 | 0.00 | 0.00 | 76 | 1010.6 |
| 20260506160553 | 28 | 146 | 9.7 | 19.3 | 0.00 | 0.00 | 0.00 | 77 | 1010.5 |
| 20260506155553 | 28 | 102 | 6.4 | 24.1 | 0.00 | 0.00 | 0.00 | 77 | 1010.8 |
| 20260506155053 | 28 | 112 | 6.4 | 24.1 | 0.00 | 0.00 | 0.00 | 77 | 1010.8 |
| 20260506154053 | 28 | 137 | 8.0 | 24.1 | 0.00 | 0.00 | 0.00 | 77 | 1010.9 |
| 20260506153553 | 28 | 68 | 1.6 | 19.3 | 0.00 | 0.00 | 0.00 | 77 | 1011.0 |
| 20260506153053 | 28 | 182 | 8.0 | 20.9 | 0.00 | 0.00 | 0.00 | 77 | 1011.1 |
| 20260506152554 | 28 | 84 | 6.4 | 20.9 | 0.00 | 0.00 | 0.00 | 77 | 1011.0 |
| 20260506152053 | 28 | 120 | 8.0 | 20.9 | 0.00 | 0.00 | 0.00 | 77 | 1011.1 |
| 20260506151553 | 28 | 126 | 4.8 | 20.9 | 0.00 | 0.00 | 0.00 | 76 | 1011.1 |
| 20260506151053 | 28 | 122 | 14.5 | 20.9 | 0.00 | 0.00 | 0.00 | 76 | 1011.1 |
| 20260506150553 | 28 | 114 | 8.0 | 24.1 | 0.00 | 0.00 | 0.00 | 77 | 1011.3 |
| 20260506150053 | 28 | 125 | 12.9 | 24.1 | 0.00 | 0.00 | 0.00 | 76 | 1011.2 |
| 20260506145552 | 28 | 120 | 4.8 | 22.5 | 0.00 | 0.00 | 0.00 | 76 | 1011.4 |